We konden geen weer-waarchuwingen ophalen. Ga rechtstreeks naar de Meteoalarm site : www.meteoalarm.eu en controleer daar .



Onweer radar Meer informatie blitzortung!


Regen radar Meer informatie rain snow radar


Bezoek onze andere website:

Template documentation
and downloads

And another site



15 daagse weersverwachting Wettingen (CH)

  • Overzicht
  • Per uur
  • 15 dagen
  • Extra
  • Vergelijk
  • Kaarten
  • Dagkaart
  • Meer »
  • Info
  • Statistieken
  • Directe link
    Temp 6h Neerslag Wind  
 06:29     20:33    Daglengte: 14:04 Vandaag
02:00
18°
 
2
08:00
17°
 
1
14:00
22°
 
2
20:00
19°
20.5 mm
2
warningclass
 06:30     20:31    Daglengte: 14:01 Morgen
02:00
18°
45.8 mm
1
warningclass
08:00
18°
30.8 mm
2
14:00
21°
13.5 mm
3
20:00
21°
 
2
 06:31     20:29    Daglengte: 13:58 Zaterdag 20 Aug
02:00
16°
29.4 mm
2
08:00
16°
 
1
14:00
21°
14.9 mm
3
20:00
19°
15.0 mm
2
Locatie info
Region: Baden
Latitude: 47.4600°N
Longitude: 8.3163°E
386 masl
Postcode: 5430
Temp/Neerslag /Baro Onweer/Dauwpunt
    Temp Baro 1h Neerslag Dauwpunt Wind UV Bewolking  
 06:29     20:33    Daglengte: 14:04 Vandaag
01:00
18°
1014.2 hPa
49%
16.6°
2
Windvlaag: 2.4 m/s
56%
02:00
18°
1014.2 hPa
29%
16.4°
2
Windvlaag: 2.2 m/s
23%
03:00
17°
1013.6 hPa
25%
16.1°
1
Windvlaag: 2.2 m/s
22%
04:00
17°
1013.4 hPa
28%
15.9°
1
Windvlaag: 0.3 m/s
37%
05:00
17°
1013.1 hPa
28%
16.1°
1
Windvlaag: 2.1 m/s
42%
06:00
17°
1012.7 hPa
23%
16.2°
1
Windvlaag: 1.4 m/s
60%
07:00
17°
1013.0 hPa
17%
16.4°
1
Windvlaag: 0.7 m/s
86%
08:00
17°
1012.9 hPa
14%
16.4°
1
Windvlaag: 0.7 m/s
86%
09:00
19°
1013.2 hPa
53%
16.6°
1
Windvlaag: 0.7 m/s
84%
10:00
20°
1013.4 hPa
68%
16.2°
1
Windvlaag: -0.7 m/s
83%
11:00
20°
1013.2 hPa
29%
14.5°
2
Windvlaag: -0.9 m/s
81%
12:00
21°
1013.1 hPa
27%
15.4°
1
Windvlaag: -0.9 m/s
86%
13:00
21°
1012.6 hPa
72%
17.9°
2
Windvlaag: -1 m/s
62%
14:00
22°
1012.3 hPa
80%
18.0°
2
Windvlaag: -0.8 m/s
86%
15:00
22°
1012.1 hPa
82%
18.6°
2
Windvlaag: 0.1 m/s
68%
16:00
22°
1011.6 hPa
75%
18.4°
2
Windvlaag: -0.2 m/s
64%
17:00
22°
1011.3 hPa 4.2 mm
82%
16.8°
2
Windvlaag: -0.1 m/s
85%
18:00
22°
1011.2 hPa 4.6 mm
82%
14.6°
2
Windvlaag: 0.3 m/s
42% warningclass
19:00
20°
1011.4 hPa 6.1 mm
82%
13.8°
2
Windvlaag: 0.5 m/s
86% warningclass
20:00
19°
1011.7 hPa 5.6 mm
82%
14.1°
2
Windvlaag: -2.3 m/s
86% warningclass
21:00
19°
1012.3 hPa 6.4 mm
82%
15.8°
1
Windvlaag: -2.1 m/s
84% warningclass
22:00
18°
1012.6 hPa 6.9 mm
82%
16.2°
1
Windvlaag: 0.7 m/s
86% warningclass
23:00
18°
1012.9 hPa 6.7 mm
82%
15.9°
2
Windvlaag: -0.6 m/s
86% warningclass
 06:30     20:31    Daglengte: 14:01 Morgen
00:00
18°
1013.1 hPa 9.8 mm
82%
15.5°
2
Windvlaag: -0.6 m/s
86% warningclass
01:00
18°
1013.2 hPa 9.5 mm
82%
16.0°
2
Windvlaag: -0.4 m/s
86% warningclass
02:00
18°
1013.0 hPa 6.5 mm
82%
16.1°
1
Windvlaag: 0.3 m/s
86% warningclass
03:00
18°
1013.0 hPa 6.0 mm
82%
16.0°
1
Windvlaag: 1.1 m/s
86%
04:00
17°
1012.9 hPa 6.0 mm
82%
16.0°
1
Windvlaag: 0.4 m/s
86% warningclass
05:00
17°
1012.9 hPa 6.0 mm
82%
15.7°
1
Windvlaag: 0.3 m/s
86%
06:00
17°
1013.3 hPa 6.5 mm
81%
15.3°
2
Windvlaag: 0.2 m/s
86% warningclass
07:00
17°
1013.8 hPa 6.3 mm
76%
15.3°
2
Windvlaag: 1.2 m/s
79%
08:00
18°
1014.2 hPa
28%
15.9°
2
Windvlaag: 1.7 m/s
74%
09:00
18°
1014.5 hPa
29%
16.4°
2
Windvlaag: 2 m/s
64%
10:00
19°
1014.9 hPa
42%
16.8°
3
Windvlaag: 2.7 m/s
58%
11:00
20°
1015.3 hPa 6.7 mm
82%
16.3°
2
Windvlaag: 2.2 m/s
69%
12:00
20°
1015.6 hPa 6.9 mm
79%
16.2°
2
Windvlaag: 2.9 m/s
85%
13:00
21°
1015.7 hPa
80%
15.5°
3
Windvlaag: 3.8 m/s
65%
14:00
21°
1015.9 hPa
80%
13.4°
3
Windvlaag: 4.5 m/s
73%
15:00
22°
1015.7 hPa
77%
13.2°
3
Windvlaag: 4.6 m/s
68%
16:00
22°
1015.5 hPa
77%
13.7°
3
Windvlaag: 5.5 m/s
59%
17:00
23°
1015.4 hPa
35%
17.8°
3
Windvlaag: 5 m/s
15%
18:00
22°
1015.6 hPa
80%
17.6°
2
Windvlaag: 4.2 m/s
13%
19:00
22°
1016.0 hPa
78%
17.9°
2
Windvlaag: 2.9 m/s
37%
20:00
21°
1016.4 hPa
69%
18.3°
2
Windvlaag: 2 m/s
25%
21:00
20°
1017.1 hPa
25%
17.6°
2
Windvlaag: 3.3 m/s
41%
22:00
19°
1017.7 hPa
23%
16.8°
2
Windvlaag: 2.8 m/s
18%
23:00
18°
1018.1 hPa
29%
13.2°
2
Windvlaag: 2.5 m/s
56%
 06:31     20:29    Daglengte: 13:58 Zaterdag 20 Aug
00:00
17°
1018.3 hPa 14.7 mm
25%
12.6°
1
Windvlaag: 3 m/s
53%
01:00
17°
1018.4 hPa 14.7 mm
21%
12.2°
2
Windvlaag: 3.8 m/s
52%
02:00
16°
1018.3 hPa
21%
11.8°
2
Windvlaag: 4.1 m/s
29%
03:00
16°
1018.3 hPa
21%
11.3°
2
Windvlaag: 5.1 m/s
22%
04:00
15°
1018.3 hPa
21%
11.2°
2
Windvlaag: 4.9 m/s
17%
05:00
15°
1018.3 hPa
21%
10.9°
2
Windvlaag: 4.4 m/s
53%
06:00
14°
1018.2 hPa
21%
10.8°
2
Windvlaag: 4 m/s
48%
07:00
15°
1018.6 hPa
21%
11.3°
2
Windvlaag: 3.7 m/s
55%
08:00
16°
1019.0 hPa
21%
11.6°
1
Windvlaag: 4.9 m/s
9%
09:00
18°
1019.1 hPa
22%
13.5°
1
Windvlaag: 8.9 m/s
20%
10:00
19°
1019.1 hPa
43%
15.2°
2
Windvlaag: 6.6 m/s
64%
11:00
19°
1019.2 hPa
91%
14.4°
3
Windvlaag: 3.9 m/s
91%
12:00
20°
1019.0 hPa
45%
13.4°
3
Windvlaag: 3.2 m/s
99%
13:00
21°
1018.9 hPa
45%
14.6°
3
Windvlaag: 3 m/s
98%
14:00
21°
1018.5 hPa 14.9 mm
90%
14.7°
3
Windvlaag: 3.4 m/s
52%
15:00
21°
1018.6 hPa 15.0 mm
100%
13.6°
3
Windvlaag: 3.6 m/s
54%
16:00
22°
1018.3 hPa
96%
13.1°
3
Windvlaag: 4.2 m/s
55%
17:00
22°
1018.0 hPa
90%
13.2°
4
Windvlaag: 4.4 m/s
38%
18:00
21°
1018.0 hPa
51%
13.1°
4
Windvlaag: 4.4 m/s
35%
19:00
21°
1018.3 hPa
47%
13.6°
3
Windvlaag: 4.5 m/s
35%
20:00
19°
1018.7 hPa
47%
15.1°
2
Windvlaag: 4.6 m/s
3%
21:00
18°
1019.2 hPa
32%
14.5°
1
Windvlaag: 4.4 m/s
9%
22:00
17°
1019.3 hPa
80%
14.1°
1
Windvlaag: 2.7 m/s
40%
23:00
17°
1019.2 hPa 14.8 mm
91%
13.3°
1
Windvlaag: 2.6 m/s
7%
 06:33     20:28    Daglengte: 13:55 Zondag 21 Aug
00:00
16°
1019.1 hPa
85%
12.6°
1
Windvlaag: 2.4 m/s
6%
Temp/Neerslag /Baro Onweer/Dauwpunt
    Temp Baro Neerslag Dauwpunt Wind Bewolking  
 06:29     20:33    Daglengte: 14:04 Vandaag
02:00
18°
1014.2 hPa   16.4°
2
23%
05:00
17°
1013.1 hPa   16.1°
1
42%
08:00
17°
1012.9 hPa   16.4°
1
86%
11:00
20°
1013.2 hPa   14.5°
2
81%
14:00
22°
1012.3 hPa   18.0°
2
86%
17:00
22°
1011.3 hPa 4.2 mm 16.8°
2
85%
20:00
19°
1011.7 hPa 16.4 mm 14.1°
2
86% warningclass
23:00
18°
1012.9 hPa 20.0 mm 15.9°
2
86% warningclass
 06:30     20:31    Daglengte: 14:01 Morgen
02:00
18°
1013.0 hPa 25.8 mm 16.1°
1
86% warningclass
05:00
17°
1012.9 hPa 18.0 mm 15.7°
1
86%
08:00
18°
1014.2 hPa 12.8 mm 15.9°
2
74%
11:00
20°
1015.3 hPa 6.7 mm 16.3°
2
69%
14:00
21°
1015.9 hPa 6.9 mm 13.4°
3
73%
17:00
23°
1015.4 hPa   17.8°
3
15%
20:00
21°
1016.4 hPa   18.3°
2
25%
23:00
18°
1018.1 hPa   13.2°
2
56%
 06:31     20:29    Daglengte: 13:58 Zaterdag 20 Aug
02:00
16°
1018.3 hPa 29.4 mm 11.8°
2
29%
05:00
15°
1018.3 hPa   10.9°
2
53%
08:00
16°
1019.0 hPa   11.6°
1
9%
11:00
19°
1019.2 hPa   14.4°
3
91%
14:00
21°
1018.5 hPa 14.9 mm 14.7°
3
52%
17:00
22°
1018.0 hPa 15.0 mm 13.2°
4
38%
20:00
19°
1018.7 hPa   15.1°
2
3%
23:00
17°
1019.2 hPa 14.8 mm 13.3°
1
7%
 06:33     20:28    Daglengte: 13:55 Zondag 21 Aug
02:00
15°
1018.9 hPa 44.1 mm 9.4°
1
40%
05:00
13°
1017.5 hPa 62.4 mm 13.2°
0
1%
08:00
15°
1017.6 hPa 62.4 mm 14.2°
0
1%
11:00
20°
1016.5 hPa 62.5 mm 16.1°
0
1%
14:00
22°
1015.3 hPa 63.9 mm 16.1°
1
1%
17:00
23°
1014.5 hPa 64.7 mm 11.3°
2
1%
20:00
18°
1015.4 hPa 65.1 mm 13.7°
1
1%
23:00
16°
1016.8 hPa 65.4 mm 13.4°
1
1%
 06:34     20:26    Daglengte: 13:52 Maandag 22 Aug
02:00
15°
1016.2 hPa 65.4 mm 13.2°
0
1%
05:00
13°
1016.5 hPa 65.4 mm 11.9°
1
1%
08:00
14°
1017.0 hPa 65.4 mm 12.5°
0
1%
11:00
21°
1016.6 hPa 65.4 mm 10.7°
2
0%
14:00
25°
1015.5 hPa 65.4 mm 10.8°
3
0%
17:00
25°
1014.4 hPa 65.4 mm 11.1°
3
0%
20:00
20°
1015.6 hPa 65.4 mm 12.4°
2
1%
23:00
18°
1016.4 hPa 65.4 mm 11.1°
1
1%
 06:35     20:24    Daglengte: 13:49 Dinsdag 23 Aug
02:00
13°
1017.3 hPa 65.4 mm 10.9°
1
1%
05:00
12°
1018.1 hPa 65.4 mm 10.4°
1
0%
08:00
14°
1018.8 hPa 65.4 mm 10.7°
1
0%
11:00
21°
1017.8 hPa 65.4 mm 11.4°
2
0%
14:00
25°
1016.4 hPa 65.4 mm 8.8°
4
0%
17:00
25°
1015.6 hPa 65.4 mm 8.4°
4
0%
20:00
19°
1016.2 hPa 65.4 mm 12.8°
2
0%
23:00
14°
1017.6 hPa 65.4 mm 10.4°
1
0%
 06:37     20:22    Daglengte: 13:45 Woensdag 24 Aug
02:00
12°
1017.7 hPa 65.4 mm 9.6°
1
0%
05:00
11°
1017.9 hPa 65.4 mm 9.2°
1
0%
08:00
13°
1018.4 hPa 65.4 mm 9.4°
1
0%
11:00
20°
1017.7 hPa 65.4 mm 10.5°
2
1%
14:00
25°
1016.1 hPa 65.4 mm 9.9°
3
1%
17:00
26°
Voelt als: 26.1°
1015.2 hPa 65.4 mm 9.5°
3
1%
20:00
19°
1015.9 hPa 65.4 mm 13.4°
1
0%
23:00
15°
1017.5 hPa   12.0°
1
0%
 06:38     20:20    Daglengte: 13:42 Donderdag 25 Aug
02:00
13°
1017.6 hPa 130.9 mm 11.7°
1
0%
08:00
14°
1018.5 hPa 130.9 mm 12.1°
1
0%
14:00
27°
1016.1 hPa 130.9 mm 12.6°
1
0%
20:00
21°
1015.4 hPa 130.9 mm 14.5°
1
0%
 06:39     20:18    Daglengte: 13:39 Vrijdag 26 Aug
02:00
15°
1017.0 hPa 130.9 mm 13.0°
1
0%
08:00
16°
1016.8 hPa 130.9 mm 13.2°
1
0%
14:00
29°
Voelt als: 28.6°
1014.1 hPa 130.9 mm 14.3°
1
0%
20:00
23°
1012.9 hPa 130.9 mm 15.8°
1
0%
 06:40     20:16    Daglengte: 13:36 Zaterdag 27 Aug
02:00
17°
1014.6 hPa 130.9 mm 14.9°
1
1%
08:00
17°
1016.3 hPa 131.9 mm 16.0°
0
1%
14:00
29°
1015.0 hPa 132.0 mm 15.9°
1
1%
20:00
22°
1018.4 hPa 0.7 mm 15.2°
1
50%
 06:42     20:14    Daglengte: 13:32 Zondag 28 Aug
02:00
17°
1019.5 hPa 0.7 mm 14.3°
1
55%
08:00
17°
1019.8 hPa 0.6 mm 14.8°
1
58%
14:00
27°
1018.8 hPa 0.4 mm 15.4°
1
52%
20:00
22°
1019.3 hPa 0.8 mm 15.4°
1
44%
 06:43     20:13    Daglengte: 13:30 Maandag 29 Aug
02:00
17°
1020.3 hPa 0.7 mm 14.1°
0
50%
08:00
17°
1020.3 hPa 0.7 mm 14.5°
0
50%
14:00
27°
1019.2 hPa 0.4 mm 15.0°
1
49%
20:00
21°
1019.2 hPa 0.5 mm 14.6°
1
50%
 06:44     20:11    Daglengte: 13:27 Dinsdag 30 Aug
02:00
17°
1020.1 hPa 0.7 mm 13.4°
0
58%
08:00
16°
1020.0 hPa 0.5 mm 13.7°
0
48%
14:00
26°
1018.4 hPa 0.4 mm 13.9°
1
49%
20:00
20°
1018.3 hPa 1.5 mm 14.2°
1
51%
 06:46     20:09    Daglengte: 13:23 Woensdag 31 Aug
02:00
16°
1019.3 hPa 0.8 mm 13.0°
0
47%
08:00
16°
1018.9 hPa 0.3 mm 13.2°
0
49%
14:00
25°
1017.2 hPa 0.3 mm 13.6°
1
45%
20:00
20°
1017.5 hPa 1.5 mm 14.0°
1
47%
 06:47     20:07    Daglengte: 13:20 Donderdag 01 Sep
02:00
15°
1018.8 hPa 0.7 mm 12.2°
0
44%
08:00
15°
1019.0 hPa 0.7 mm 12.3°
0
50%
14:00
24°
1017.5 hPa 0.6 mm 12.4°
1
40%
20:00
19°
1017.9 hPa 0.7 mm 12.7°
1
39%
  CAPE Lifted Index Hail Supercell Tornado SRH 3km CL BTM PRES CL TOP PRES Swiss DWD icon SMHI TS
 06:29     20:33    Daglengte: 14:04 Vandaag
01:00 0 J/kg -1.6 K 0 % 0 % 0 % 0 m²/s² 0 0 -1.3 3
02:00 0 J/kg -1.5 K 0 % 0 % 0 % 0 m²/s² 0 0 -0.69 2
03:00 0 J/kg -0.8 K 0 % 0 % 0 % 0 m²/s² 0 0 0.07 2
04:00 0 J/kg -1.0 K 0 % 0 % 0 % 0 m²/s² 0 0 -0.43 3
05:00 0 J/kg 0.1 K 0 % 0 % 0 % 0 m²/s² 0 0 0.1 3
06:00 0 J/kg 0.0 K 0 % 0 % 0 % 0 m²/s² 0 0 0.48 3
07:00 0 J/kg 1.0 K 0 % 0 % 0 % 0 m²/s² 0 0 2.62 3
08:00 0 J/kg 1.3 K 0 % 0 % 0 % 0 m²/s² 0 0 3.1 3
09:00 12 J/kg 0.6 K 0 % 0 % 0 % 0 m²/s² 0 0 1.98 3
10:00 24 J/kg 0.3 K 0 % 0 % 0 % 0 m²/s² 0 0 1.86 3
11:00 176 J/kg -0.8 K 0 % 0 % 0 % 0 m²/s² 0 0 1 3
12:00 245 J/kg -0.9 K 0 % 0 % 0 % 0 m²/s² 0 0 1.17 3
13:00 255 J/kg -0.9 K 0 % 0 % 0 % 0 m²/s² 0 0 0.96 3
14:00 214 J/kg -0.5 K 0 % 0 % 0 % 0 m²/s² 0 0 1.12 3
15:00 277 J/kg -0.8 K 0 % 0 % 0 % 0 m²/s² 0 0 -0.02 80
16:00 355 J/kg -1.7 K 0 % 0 % 0 % 0 m²/s² 0 0 -0.89 3
17:00 353 J/kg -2.0 K 0 % 0 % 0 % 0 m²/s² 0 0 -1.79 80
18:00 334 J/kg -1.7 K 0 % 0 % 0 % 0 m²/s² 0 0 -1.61 95
19:00 269 J/kg -1.3 K 0 % 0 % 0 % 0 m²/s² 0 0 -1.21 95
20:00 201 J/kg -1.0 K 0 % 0 % 0 % 0 m²/s² 0 0 -0.73 95
21:00 190 J/kg -1.0 K 0 % 0 % 0 % 0 m²/s² 0 0 -0.43 95
22:00 261 J/kg -1.4 K 0 % 0 % 0 % 0 m²/s² 0 0 -1.1 95
23:00 217 J/kg -1.1 K 0 % 0 % 0 % 0 m²/s² 0 0 -0.98 95
 06:30     20:31    Daglengte: 14:01 Morgen
00:00 162 J/kg -0.8 K 0 % 0 % 0 % 0 m²/s² 0 0 -0.77 95
01:00 118 J/kg -0.3 K 0 % 0 % 0 % 0 m²/s² 0 0 -0.3 95
02:00 44 J/kg 0.1 K 0 % 0 % 0 % 0 m²/s² 0 0 0.37 95
03:00 10 J/kg 0.6 K 0 % 0 % 0 % 0 m²/s² 0 0 1.14 80
04:00 4 J/kg 0.8 K 0 % 0 % 0 % 0 m²/s² 0 0 1.1 95
05:00 0 J/kg 0.1 K 0 % 0 % 0 % 0 m²/s² 0 0 0.55 80
06:00 0 J/kg -0.1 K 0 % 0 % 0 % 0 m²/s² 0 0 -0.1 95
07:00 0 J/kg -0.2 K 0 % 0 % 0 % 0 m²/s² 0 0 0.1 80
08:00 0 J/kg -0.1 K 0 % 0 % 0 % 0 m²/s² 0 0 -0.1 3
09:00 0 J/kg 0.4 K 0 % 0 % 0 % 0 m²/s² 0 0 0.43 3
10:00 0 J/kg 0.5 K 0 % 0 % 0 % 0 m²/s² 0 0 0.5 3
11:00 10 J/kg -0.1 K 0 % 0 % 0 % 0 m²/s² 0 0 -0.1 3
12:00 152 J/kg -1.1 K 0 % 0 % 0 % 0 m²/s² 0 0 -1.1 3
13:00 364 J/kg -1.7 K 0 % 0 % 0 % 0 m²/s² 0 0 -1.7 3
14:00 502 J/kg -2.0 K 0 % 0 % 0 % 0 m²/s² 0 0 -2 80
15:00 554 J/kg -2.1 K 0 % 0 % 0 % 0 m²/s² 0 0 -2.1 3
16:00 694 J/kg -2.7 K 0 % 0 % 0 % 0 m²/s² 0 0 -2.52 3
17:00 871 J/kg -3.4 K 0 % 0 % 0 % 0 m²/s² 0 0 -2.92 2
18:00 882 J/kg -3.0 K 0 % 0 % 0 % 0 m²/s² 0 0 -2.43 2
19:00 758 J/kg -2.2 K 0 % 0 % 0 % 0 m²/s² 0 0 -1.48 3
20:00 437 J/kg -0.4 K 0 % 0 % 0 % 0 m²/s² 0 0 0.59 80
21:00 184 J/kg 0.7 K 0 % 0 % 0 % 0 m²/s² 0 0 2.17 3
22:00 44 J/kg 1.6 K 0 % 0 % 0 % 0 m²/s² 0 0 3.19 2
23:00 0 J/kg 1.4 K 0 % 0 % 0 % 0 m²/s² 0 0 3.35 2
 06:31     20:29    Daglengte: 13:58 Zaterdag 20 Aug
00:00 0 J/kg 1.7 K 0 % 0 % 0 % 0 m²/s² 0 0 3.53 1
01:00 0 J/kg 1.7 K 0 % 0 % 0 % 0 m²/s² 0 0 3.74 2
02:00 0 J/kg 1.9 K 0 % 0 % 0 % 0 m²/s² 0 0 3.34 2
03:00 0 J/kg 1.5 K 0 % 0 % 0 % 0 m²/s² 0 0 2.94 45
04:00 0 J/kg 1.5 K 0 % 0 % 0 % 0 m²/s² 0 0 2.94 45
05:00 0 J/kg 1.0 K 0 % 0 % 0 % 0 m²/s² 0 0 2.17 45
06:00 0 J/kg 0.8 K 0 % 0 % 0 % 0 m²/s² 0 0 2.3 45
07:00 0 J/kg 0.6 K 0 % 0 % 0 % 0 m²/s² 0 0 1.92 45
08:00 0 J/kg 0.6 K 0 % 0 % 0 % 0 m²/s² 0 0 1.74 45
09:00 0 J/kg 0.6 K 0 % 0 % 0 % 0 m²/s² 0 0 1.59 2
10:00 72 J/kg 0.1 K 0 % 0 % 0 % 0 m²/s² 0 0 0.73 2
11:00 98 J/kg -0.2 K 0 % 0 % 0 % 0 m²/s² 0 0 0.22 3
12:00 233 J/kg -0.5 K 0 % 0 % 0 % 0 m²/s² 0 0 -0.32 3
13:00 382 J/kg -1.1 K 0 % 0 % 0 % 0 m²/s² 0 0 -0.71 3
14:00 459 J/kg -1.4 K 0 % 0 % 0 % 0 m²/s² 0 0 -0.86 80
15:00 471 J/kg -1.6 K 0 % 0 % 0 % 0 m²/s² 0 0 -0.94 80
16:00 553 J/kg -1.8 K 0 % 0 % 0 % 0 m²/s² 0 0 -0.42 3
17:00 708 J/kg -2.4 K 0 % 0 % 0 % 0 m²/s² 0 0 0.75 3
18:00 646 J/kg -2.3 K 0 % 0 % 0 % 0 m²/s² 0 0 1.81 3
19:00 695 J/kg -2.3 K 0 % 0 % 0 % 0 m²/s² 0 0 1.9 3
20:00 643 J/kg -2.0 K 0 % 0 % 0 % 0 m²/s² 0 0 2.68 1
21:00 405 J/kg -1.3 K 0 % 0 % 0 % 0 m²/s² 0 0 3.35 1
22:00 282 J/kg -0.8 K 0 % 0 % 0 % 0 m²/s² 0 0 4.51 3
23:00 35 J/kg -0.2 K 0 % 0 % 0 % 0 m²/s² 0 0 6.07 80
 06:33     20:28    Daglengte: 13:55 Zondag 21 Aug
00:00 19 J/kg 0.5 K 0 % 0 % 0 % 0 m²/s² 0 0 7.13 2
Temp Baro Wind Neerslag
  EWN Forecast EWN WRFDA DWD ICON FMI HIRLAM MET Norway GFS
 06:29     20:33    Daglengte: 14:04 Vandaag
02:00 17.9° 1014.2 hPa 1.7 m/s 0.0 mm 16.5° 1012.4 hPa 2.7 m/s 37.8 mm 18.1° 1013.7 hPa 0.4 m/s -1.6 mm 18.3° 1015.1 hPa 1.7 m/s 0.0 mm 17.1° 1014.4 hPa 1.3 m/s
05:00 16.9° 1013.1 hPa 0.8 m/s 0.0 mm 16.0° 1011.4 hPa 2.4 m/s 59.1 mm 16.1° 1012.7 hPa 0.7 m/s 0.0 mm 17.8° 1014.9 hPa 0.2 m/s 0.0 mm 17.0° 1013.5 hPa 1.1 m/s
08:00 17.3° 1012.9 hPa 0.9 m/s 0.0 mm 17.0° 1010.7 hPa 1.4 m/s 59.5 mm 17.2° 1013.0 hPa 0.4 m/s 0.0 mm 18.2° 1014.1 hPa 1.8 m/s 0.0 mm 17.2° 1014.0 hPa 0.8 m/s
11:00 20.3° 1013.2 hPa 2.0 m/s 0.0 mm 20.1° 1011.8 hPa 1.9 m/s 59.6 mm 19.9° 1013.3 hPa 1.9 m/s 0.0 mm 22.9° 1013.8 hPa 2.8 m/s 0.0 mm 19.2° 1013.8 hPa 0.6 m/s
14:00 21.8° 1012.3 hPa 2.0 m/s 0.0 mm 23.4° 1008.9 hPa 2.8 m/s 59.7 mm 21.7° 1012.6 hPa 1.3 m/s 0.0 mm 22.2° 1013.2 hPa 2.3 m/s 0.0 mm 21.3° 1012.4 hPa 2.3 m/s
17:00 21.9° 1011.3 hPa 2.4 m/s 4.2 mm 23.5° 1007.9 hPa 4.0 m/s 59.7 mm 21.2° 1012.1 hPa 0.9 m/s 0.7 mm 23.7° 1011.2 hPa 4.1 m/s 0.0 mm 20.6° 1012.1 hPa 1.5 m/s
20:00 19.4° 1011.7 hPa 1.7 m/s 16.4 mm 19.4° 1008.4 hPa 1.9 m/s 63.0 mm 18.9° 1012.4 hPa 0.7 m/s 5.8 mm 22.9° 1011.7 hPa 3.0 m/s 0.0 mm 18.1° 1012.3 hPa 1.5 m/s
23:00 18.2° 1012.9 hPa 1.9 m/s 20.0 mm 18.5° 1009.6 hPa 2.0 m/s 70.5 mm 17.9° 1013.4 hPa 0.6 m/s 9.1 mm 20.0° 1012.3 hPa 2.5 m/s 0.0 mm 17.4° 1013.1 hPa 0.2 m/s
 06:30     20:31    Daglengte: 14:01 Morgen
02:00 17.6° 1013.0 hPa 1.1 m/s 25.8 mm 17.5° 1009.9 hPa 2.2 m/s 76.8 mm 17.5° 1013.7 hPa 0.8 m/s 20.6 mm 18.6° 1012.3 hPa 0.6 m/s 0.0 mm 16.9° 1013.2 hPa 0.8 m/s
05:00 17.3° 1012.9 hPa 1.5 m/s 18.0 mm 17.0° 1009.6 hPa 4.3 m/s 79.1 mm 17.2° 1013.4 hPa 1.1 m/s 2.4 mm 18.1° 1012.3 hPa 0.6 m/s 0.0 mm 16.5° 1012.4 hPa 1.0 m/s
08:00 17.6° 1014.2 hPa 1.8 m/s 12.8 mm 17.1° 1010.1 hPa 4.3 m/s 80.8 mm 17.7° 1014.9 hPa 1.5 m/s 1.5 mm 18.4° 1013.3 hPa 0.7 m/s 0.0 mm 16.4° 1013.6 hPa 1.5 m/s
11:00 19.5° 1015.3 hPa 2.3 m/s 6.7 mm 17.8° 1011.6 hPa 5.5 m/s 89.2 mm 19.9° 1016.0 hPa 1.9 m/s 0.1 mm 22.0° 1013.6 hPa 1.3 m/s 0.0 mm 17.0° 1015.6 hPa 2.3 m/s
14:00 21.2° 1015.9 hPa 2.9 m/s 6.9 mm 19.1° 1012.8 hPa 4.2 m/s 109.6 mm 20.9° 1016.6 hPa 2.7 m/s 0.9 mm 26.3° 1013.4 hPa 3.1 m/s 0.0 mm 18.3° 1015.8 hPa 2.1 m/s
17:00 22.6° 1015.4 hPa 2.5 m/s 0.0 mm 21.4° 1013.8 hPa 1.2 m/s 125.1 mm 22.8° 1015.9 hPa 2.7 m/s 0.2 mm 24.1° 1013.5 hPa 2.3 m/s 0.0 mm 19.8° 1015.9 hPa 2.1 m/s
20:00 20.6° 1016.4 hPa 1.5 m/s 0.0 mm 21.9° 1013.9 hPa 1.3 m/s 129.9 mm 20.4° 1017.5 hPa 1.1 m/s 0.4 mm 22.5° 1014.5 hPa 1.4 m/s 0.0 mm 17.5° 1016.7 hPa 1.6 m/s
23:00 17.8° 1018.1 hPa 1.7 m/s 0.0 mm 18.4° 1015.8 hPa 2.6 m/s 130.6 mm 17.9° 1018.5 hPa 1.0 m/s 0.0 mm 16.1° 1018.1 hPa 1.5 m/s
 06:31     20:29    Daglengte: 13:58 Zaterdag 20 Aug
02:00 16.2° 1018.3 hPa 1.9 m/s 29.4 mm 15.7° 1015.9 hPa 2.5 m/s 130.6 mm 16.1° 1018.7 hPa 1.0 m/s 0.0 mm 15.1° 1017.9 hPa 1.3 m/s
05:00 14.7° 1018.3 hPa 2.0 m/s 0.0 mm 14.3° 1016.1 hPa 2.5 m/s 130.6 mm 14.4° 1018.6 hPa 0.9 m/s 0.0 mm 13.9° 1017.8 hPa 1.0 m/s
08:00 16.0° 1019.0 hPa 0.9 m/s 0.0 mm 17.4° 1016.9 hPa 3.6 m/s 130.6 mm 15.6° 1019.5 hPa 0.2 m/s 0.0 mm 15.3° 1018.1 hPa 0.9 m/s
11:00 19.3° 1019.2 hPa 2.7 m/s 0.0 mm 19.8° 1018.0 hPa 2.8 m/s 130.6 mm 19.2° 1019.5 hPa 2.7 m/s 0.0 mm 21.5° 1017.5 hPa 2.3 m/s
14:00 21.2° 1018.5 hPa 2.9 m/s 14.9 mm 21.7° 1017.5 hPa 1.8 m/s 131.3 mm 21.1° 1018.8 hPa 3.2 m/s 0.4 mm 22.2° 1017.7 hPa 4.2 m/s
17:00 21.7° 1018.0 hPa 3.8 m/s 15.0 mm 23.5° 1016.6 hPa 3.0 m/s 131.6 mm 21.2° 1018.4 hPa 4.0 m/s 0.6 mm 22.5° 1017.0 hPa 2.1 m/s
20:00 19.1° 1018.7 hPa 1.9 m/s 0.0 mm 19.7° 1016.5 hPa 2.4 m/s 131.6 mm 19.0° 1019.2 hPa 1.8 m/s 0.0 mm 18.6° 1017.5 hPa 1.0 m/s
23:00 16.5° 1019.2 hPa 0.8 m/s 14.8 mm 16.0° 1016.6 hPa 2.5 m/s 131.6 mm 16.7° 1019.8 hPa 0.3 m/s 0.2 mm 14.8° 1019.1 hPa 0.4 m/s
 06:33     20:28    Daglengte: 13:55 Zondag 21 Aug
02:00 15.2° 1018.9 hPa 0.7 m/s 44.1 mm 14.2° 1016.4 hPa 2.1 m/s 131.6 mm 15.5° 1019.5 hPa 0.4 m/s 0.4 mm 13.8° 1018.8 hPa 0.7 m/s
05:00 13.4° 1017.5 hPa 0.2 m/s 62.4 mm 13.4° 1017.5 hPa 0.2 m/s 62.4 mm
08:00 14.7° 1017.6 hPa 0.4 m/s 62.4 mm 14.7° 1017.6 hPa 0.4 m/s 62.4 mm
11:00 20.2° 1016.5 hPa 0.3 m/s 62.5 mm 20.2° 1016.5 hPa 0.3 m/s 62.5 mm
14:00 21.7° 1015.3 hPa 1.4 m/s 63.9 mm 21.7° 1015.3 hPa 1.4 m/s 63.9 mm
17:00 23.2° 1014.5 hPa 1.9 m/s 64.7 mm 23.2° 1014.5 hPa 1.9 m/s 64.7 mm
20:00 18.1° 1015.4 hPa 0.7 m/s 65.1 mm 18.1° 1015.4 hPa 0.7 m/s 65.1 mm
23:00 16.1° 1016.8 hPa 1.1 m/s 65.4 mm 16.1° 1016.8 hPa 1.1 m/s 65.4 mm
 06:34     20:26    Daglengte: 13:52 Maandag 22 Aug
02:00 15.3° 1016.2 hPa 0.3 m/s 65.4 mm 15.3° 1016.2 hPa 0.3 m/s 65.4 mm
05:00 13.1° 1016.5 hPa 1.1 m/s 65.4 mm 13.1° 1016.5 hPa 1.1 m/s 65.4 mm
08:00 14.3° 1017.0 hPa 0.4 m/s 65.4 mm 14.3° 1017.0 hPa 0.4 m/s 65.4 mm
11:00 20.6° 1016.6 hPa 1.9 m/s 65.4 mm 20.6° 1016.6 hPa 1.9 m/s 65.4 mm
14:00 24.6° 1015.5 hPa 2.7 m/s 65.4 mm 24.6° 1015.5 hPa 2.7 m/s 65.4 mm
17:00 25.3° 1014.4 hPa 2.6 m/s 65.4 mm 25.3° 1014.4 hPa 2.7 m/s 65.4 mm
20:00 20.3° 1015.6 hPa 2.3 m/s 65.4 mm 20.3° 1015.6 hPa 2.3 m/s 65.4 mm
23:00 17.6° 1016.4 hPa 1.0 m/s 65.4 mm 17.6° 1016.4 hPa 1.0 m/s 65.4 mm
 06:35     20:24    Daglengte: 13:49 Dinsdag 23 Aug
02:00 13.2° 1017.3 hPa 0.8 m/s 65.4 mm 13.2° 1017.3 hPa 0.8 m/s 65.4 mm
05:00 11.8° 1018.1 hPa 0.8 m/s 65.4 mm 11.8° 1018.1 hPa 0.8 m/s 65.4 mm
08:00 13.7° 1018.8 hPa 0.8 m/s 65.4 mm 13.7° 1018.8 hPa 0.8 m/s 65.4 mm
11:00 20.7° 1017.8 hPa 2.4 m/s 65.4 mm 20.7° 1017.8 hPa 2.4 m/s 65.4 mm
14:00 25.5° 1016.4 hPa 3.9 m/s 65.4 mm 25.5° 1016.4 hPa 3.9 m/s 65.4 mm
17:00 25.5° 1015.6 hPa 4.1 m/s 65.4 mm 25.5° 1015.6 hPa 4.1 m/s 65.4 mm
20:00 18.9° 1016.2 hPa 1.8 m/s 65.4 mm 18.9° 1016.2 hPa 1.8 m/s 65.4 mm
23:00 14.4° 1017.6 hPa 1.2 m/s 65.4 mm 14.4° 1017.6 hPa 1.2 m/s 65.4 mm
 06:37     20:22    Daglengte: 13:45 Woensdag 24 Aug
02:00 12.4° 1017.7 hPa 0.8 m/s 65.4 mm 12.4° 1017.7 hPa 0.8 m/s 65.4 mm
05:00 10.9° 1017.9 hPa 1.0 m/s 65.4 mm 10.9° 1017.9 hPa 1.0 m/s 65.4 mm
08:00 12.8° 1018.4 hPa 0.7 m/s 65.4 mm 12.8° 1018.4 hPa 0.7 m/s 65.4 mm
11:00 19.8° 1017.7 hPa 2.4 m/s 65.4 mm 19.8° 1017.7 hPa 2.4 m/s 65.4 mm
14:00 24.9° 1016.1 hPa 3.0 m/s 65.4 mm 24.9° 1016.1 hPa 3.0 m/s 65.4 mm
17:00 26.2° 1015.2 hPa 2.9 m/s 65.4 mm 26.2° 1015.2 hPa 2.9 m/s 65.4 mm
20:00 19.4° 1015.9 hPa 1.3 m/s 65.4 mm 19.4° 1015.9 hPa 1.3 m/s 65.4 mm
23:00 15.1° 1017.5 hPa 1.0 m/s 65.4 mm 15.1° 1017.5 hPa 1.0 m/s 65.4 mm
 06:38     20:20    Daglengte: 13:42 Donderdag 25 Aug
02:00 13.3° 1017.6 hPa 0.7 m/s 65.4 mm 13.3° 1017.6 hPa 0.7 m/s 65.4 mm
08:00 14.2° 1018.5 hPa 0.6 m/s 65.4 mm 14.2° 1018.5 hPa 0.6 m/s 65.4 mm
14:00 26.6° 1016.1 hPa 1.5 m/s 65.4 mm 26.6° 1016.2 hPa 1.5 m/s 65.4 mm
20:00 21.0° 1015.4 hPa 0.7 m/s 65.4 mm 21.0° 1015.4 hPa 0.7 m/s 65.4 mm
 06:39     20:18    Daglengte: 13:39 Vrijdag 26 Aug
02:00 15.3° 1017.0 hPa 0.8 m/s 65.4 mm 15.3° 1017.0 hPa 0.8 m/s 65.4 mm
08:00 16.1° 1016.8 hPa 0.7 m/s 65.4 mm 16.1° 1016.8 hPa 0.7 m/s 65.4 mm
14:00 28.9° 1014.1 hPa 1.0 m/s 65.4 mm 28.9° 1014.1 hPa 1.0 m/s 65.4 mm
20:00 22.6° 1012.9 hPa 1.2 m/s 65.4 mm 22.6° 1012.9 hPa 1.2 m/s 65.4 mm
 06:40     20:16    Daglengte: 13:36 Zaterdag 27 Aug
02:00 17.3° 1014.6 hPa 0.7 m/s 65.4 mm 17.3° 1014.6 hPa 0.7 m/s 65.4 mm
08:00 17.3° 1016.3 hPa 0.1 m/s 66.0 mm 17.3° 1016.3 hPa 0.1 m/s 66.0 mm
14:00 29.4° 1015.0 hPa 0.9 m/s 66.0 mm 29.4° 1015.0 hPa 0.9 m/s 66.0 mm
20:00 22.2° 1018.4 hPa 1.3 m/s 0.7 mm
 06:42     20:14    Daglengte: 13:32 Zondag 28 Aug
02:00 17.4° 1019.5 hPa 0.6 m/s 0.7 mm
08:00 17.0° 1019.8 hPa 0.5 m/s 0.6 mm
14:00 26.6° 1018.8 hPa 1.0 m/s 0.4 mm
20:00 21.9° 1019.3 hPa 0.8 m/s 0.8 mm
 06:43     20:13    Daglengte: 13:30 Maandag 29 Aug
02:00 17.2° 1020.3 hPa 0.3 m/s 0.7 mm
08:00 16.9° 1020.3 hPa 0.3 m/s 0.7 mm
14:00 26.6° 1019.2 hPa 0.8 m/s 0.4 mm
20:00 21.3° 1019.2 hPa 0.9 m/s 0.5 mm
 06:44     20:11    Daglengte: 13:27 Dinsdag 30 Aug
02:00 16.7° 1020.1 hPa 0.5 m/s 0.7 mm
08:00 16.4° 1020.0 hPa 0.2 m/s 0.5 mm
14:00 25.7° 1018.4 hPa 0.8 m/s 0.4 mm
20:00 20.4° 1018.3 hPa 0.6 m/s 1.5 mm
 06:46     20:09    Daglengte: 13:23 Woensdag 31 Aug
02:00 15.9° 1019.3 hPa 0.4 m/s 0.8 mm
08:00 15.7° 1018.9 hPa 0.3 m/s 0.3 mm
14:00 25.3° 1017.2 hPa 0.8 m/s 0.3 mm
20:00 20.2° 1017.5 hPa 0.8 m/s 1.5 mm
 06:47     20:07    Daglengte: 13:20 Donderdag 01 Sep
02:00 15.4° 1018.8 hPa 0.2 m/s 0.7 mm
08:00 14.8° 1019.0 hPa 0.3 m/s 0.7 mm
14:00 24.4° 1017.5 hPa 0.9 m/s 0.6 mm
20:00 19.3° 1017.9 hPa 0.6 m/s 0.7 mm
FMI Hirlam - 7.5 km EWN WRFDA - 12 km DWD ICON - 7 km GFS - 25 km Basiskaart






























































Updatetijd (Europe/Amsterdam) Resolutie Lengte Stap
FMI Hirlam 19:15, 01:15, 07:15, 13:15 7.5 km 49h 1h
EWN WRFDA 22:30, 04:30, 10:30, 16:30 12 km 73h 1h
DWD ICON 23:45, 05:45, 11:45, 17:45 7 km 75h 1h
GFS 20:00, 02:00, 08:00, 14:00 25 km 237h 3h
30+ mm
25-30 mm
20-25 mm
15-20 mm
10-15 mm
6-10 mm
4-6 mm
2-4 mm
1-2 mm
0.5-1 mm
0.2-0.5 mm
0.1-0.2 mm
30+ mm
25-30 mm
20-25 mm
15-20 mm
10-15 mm
6-10 mm
4-6 mm
2-4 mm
1-2 mm
0.5-1 mm
0.2-0.5 mm
0.1-0.2 mm
Sneeuwval